Location: Berlin
(52.5171°N, 13.3759°E)
Time: 22:28:43
(UTC+01:00)

ISS - Visible Passes

Search period start: 25 February 2018 00:00
Search period end: 07 March 2018 00:00
Orbit: 403 x 406 km, 51.6° (Epoch: 26 February)

Date Brightness Start Highest point End Pass type
(mag) Time Alt. Az. Time Alt. Az. Time Alt. Az.
26 Feb -0.8 06:26:25 10° S 06:27:58 13° SE 06:29:32 10° ESE visible
28 Feb -1.5 06:17:01 10° SSW 06:19:38 22° SSE 06:22:16 10° E visible
01 Mar -1.1 05:25:38 10° S 05:27:36 15° SE 05:29:33 10° ESE visible
02 Mar -2.4 06:08:19 10° SW 06:11:21 35° SSE 06:14:24 10° E visible
03 Mar -2.0 05:17:00 13° SSW 05:19:13 25° SSE 05:21:59 10° E visible
04 Mar -1.5 04:26:55 17° SSE 04:27:07 17° SE 04:29:22 10° E visible
04 Mar -3.2 05:59:54 10° WSW 06:03:07 53° SSE 06:06:20 10° E visible
05 Mar -2.9 05:09:24 24° SSW 05:10:53 40° SSE 05:13:59 10° E visible
06 Mar -2.1 04:19:09 27° SE 04:19:09 27° SE 04:21:34 10° E visible
06 Mar -3.7 05:51:48 11° WSW 05:54:52 70° S 05:58:09 10° E visible
